Regional Weather Roundup
Issued by NWS

Home | Current Version | Previous Version | Graphics & Text | Print | Product List | Glossary On
Versions: 1 2 3 4 5 6 7 8 9 10 11 12 13 14 15 16 17 18 19 20 21 22 23 24 25 26 27 28 29 30 31 32 33 34 35 36 37 38 39 40 41 42 43 44 45 46 47 48 49 50
000
ASUS45 KCYS 310610
RWRWY

WYOMING REGIONAL WEATHER ROUNDUP
NATIONAL WEATHER SERVICE CHEYENNE WY
1100 PM MST FRI JAN 30 2015

NOTE:  "FAIR" INDICATES FEW OR NO CLOUDS BELOW 12,000 FEET
WITH NO SIGNIFICANT WEATHER AND/OR OBSTRUCTIONS TO VISIBILITY.

WYZ001-310700-
YELLOWSTONE NATIONAL PARK

CITY           SKY/WX    TMP DP  RH WIND       PRES   REMARKS
LK YELLOWSTONE   N/A      5   1  83 CALM      30.11S
6HR MIN TEMP:   3; 6HR MAX TEMP:  12;

W YELLOWSTONE  NOT AVBL

$$
WYZ002>013-054>058-071-098>099-310700-
NORTHERN WYOMING

CITY           SKY/WX    TMP DP  RH WIND       PRES   REMARKS
JACKSON        FAIR      10   9  92 N8        30.10F WCI  -1
CODY             N/A     27  25  93 CALM      30.06S
GREYBULL       FOG       25  24  96 CALM      30.10F VSB 3/4
6HR MIN TEMP:  25; 6HR MAX TEMP:  29;

WORLAND        FAIR      20  17  88 CALM      30.09F FOG
6HR MIN TEMP:  19; 6HR MAX TEMP:  30;

SHERIDAN       FAIR      26  20  77 N5        30.04F WCI  20
6HR MIN TEMP:  25; 6HR MAX TEMP:  36;

BUFFALO        FAIR      32  17  54 S9        30.05F WCI  24
6HR MIN TEMP:  29; 6HR MAX TEMP:  40;

GILLETTE       FAIR      24  21  88 S8        30.06F WCI  15
6HR MIN TEMP:  23; 6HR MAX TEMP:  33;

HULETT           N/A    N/A N/A N/A MISG        N/A
NEWCASTLE      FAIR      32  25  74 E3        30.10S

$$
WYZ014>020-022>026-101>103-310700-
CENTRAL WYOMING

CITY           SKY/WX    TMP DP  RH WIND       PRES   REMARKS
BIG PINEY      CLOUDY    27  23  85 SE3       30.08R
6HR MIN TEMP:  27; 6HR MAX TEMP:  32;

PINEDALE       CLOUDY    25  21  86 W5        30.07S WCI  19
DUBOIS         CLOUDY    27  18  69 NW3       30.07F
LANDER         MOCLDY    32  21  64 CALM      30.07F
6HR MIN TEMP:  31; 6HR MAX TEMP:  35;

RIVERTON       FAIR      32  26  78 CALM      30.08F
6HR MIN TEMP:  31; 6HR MAX TEMP:  35;

CASPER         FAIR      28  24  85 NW8       30.07F WCI  20
6HR MIN TEMP:  27; 6HR MAX TEMP:  37;

DOUGLAS        FAIR      29  23  78 CALM      30.08F
6HR MIN TEMP:  28; 6HR MAX TEMP:  39;


$$
WYZ021-027>030-104>119-310700-
SOUTHERN WYOMING

CITY           SKY/WX    TMP DP  RH WIND       PRES   REMARKS
EVANSTON       CLOUDY    31  27  85 NE15      30.02S WCI  20
6HR MIN TEMP:  31; 6HR MAX TEMP:  34; 6HR PCP:  0.04;

KEMMERER       FLURRIES  30  28  93 NE9       30.04F WCI  22
FORT BRIDGER   LGT SNOW  31  31 100 NE8       30.06F WCI  23
ROCK SPRINGS   LGT SNOW  29  26  89 NE13      30.04S FOG     WCI  19
6HR MIN TEMP:  29; 6HR MAX TEMP:  34; 6HR PCP: TRACE;

DIXON          CLOUDY    34  32  91 CALM      29.98S
RAWLINS        MOCLDY    32  23  69 NE13      30.01F WCI  22
6HR MIN TEMP:  32; 6HR MAX TEMP:  37; 6HR PCP: TRACE;

SARATOGA       MOCLDY    32  30  93 SW3       30.00S
LARAMIE        CLOUDY    28  21  75 E3        30.02F
6HR MIN TEMP:  28; 6HR MAX TEMP:  35;

CHEYENNE       CLOUDY    32  23  69 N9        30.03F WCI  24
6HR MIN TEMP:  32; 6HR MAX TEMP:  39;

TORRINGTON     FAIR      34  25  69 N9        30.06F WCI  27
6HR MIN TEMP:  34; 6HR MAX TEMP:  44;

PINE BLUFFS    CLOUDY    32  27  80 NW5       30.04F WCI  27

$$


USA.gov is the U.S. government's official web portal to all federal, state and local government web resources and services.